Time,TemperatureF,DewpointF,PressureIn,WindDirection,WindDirectionDegrees,WindSpeedMPH,WindSpeedGustMPH,Humidity,HourlyPrecipIn,Conditions,Clouds,dailyrainin,SoftwareType,DateUTC
2013-12-13 00:00:00,29.7,16.3,30.38,NW,314,0.0,0.0,57,0.00,CLR,,0.00,WeatherDisplay:10.37,2013-12-13 05:00:00,
2013-12-13 00:01:00,29.7,16.3,30.38,NW,314,0.0,0.0,57,0.00,CLR,,0.00,WeatherDisplay:10.37,2013-12-13 05:01:00,
2013-12-13 00:06:00,29.7,15.9,30.38,NW,314,0.0,0.0,56,0.00,CLR,,0.00,WeatherDisplay:10.37,2013-12-13 05:06:00,
2013-12-13 00:11:00,29.6,15.8,30.38,NW,314,0.0,0.0,56,0.00,CLR,,0.00,WeatherDisplay:10.37,2013-12-13 05:11:00,
2013-12-13 00:16:00,29.6,15.8,30.39,NW,314,0.0,0.0,56,0.00,CLR,,0.00,WeatherDisplay:10.37,2013-12-13 05:16:00,
2013-12-13 00:21:00,29.6,15.8,30.39,NW,314,0.0,0.0,56,0.00,CLR,,0.00,WeatherDisplay:10.37,2013-12-13 05:21:00,
2013-12-13 00:26:00,29.4,16.4,30.39,NW,314,0.0,0.0,58,0.00,CLR,,0.00,WeatherDisplay:10.37,2013-12-13 05:26:00,
2013-12-13 00:31:00,29.3,15.9,30.39,NW,314,0.0,0.0,57,0.00,CLR,,0.00,WeatherDisplay:10.37,2013-12-13 05:31:00,
2013-12-13 00:36:00,29.1,15.7,30.38,NW,314,0.0,0.0,57,0.00,CLR,,0.00,WeatherDisplay:10.37,2013-12-13 05:36:00,
2013-12-13 00:41:00,29.0,15.7,30.38,NW,314,0.0,0.0,57,0.00,CLR,,0.00,WeatherDisplay:10.37,2013-12-13 05:41:00,
2013-12-13 00:46:00,28.8,15.5,30.39,NW,314,0.0,0.0,57,0.00,CLR,,0.00,WeatherDisplay:10.37,2013-12-13 05:46:00,
2013-12-13 00:51:00,28.7,15.0,30.39,NW,314,0.0,0.0,56,0.00,CLR,,0.00,WeatherDisplay:10.37,2013-12-13 05:51:00,
2013-12-13 00:56:00,28.7,15.0,30.38,NW,314,0.0,0.0,56,0.00,CLR,,0.00,WeatherDisplay:10.37,2013-12-13 05:56:00,
2013-12-13 01:01:00,28.7,15.0,30.38,NW,314,0.0,0.0,56,0.00,CLR,,0.00,WeatherDisplay:10.37,2013-12-13 06:01:00,
2013-12-13 01:06:00,28.9,15.2,30.38,NW,314,0.0,0.0,56,0.00,CLR,,0.00,WeatherDisplay:10.37,2013-12-13 06:06:00,
2013-12-13 01:11:00,29.0,15.7,30.38,NW,314,0.0,0.0,57,0.00,CLR,,0.00,WeatherDisplay:10.37,2013-12-13 06:11:00,
2013-12-13 01:16:00,29.2,15.4,30.38,NW,314,0.0,0.0,56,0.00,CLR,,0.00,WeatherDisplay:10.37,2013-12-13 06:16:00,
2013-12-13 01:21:00,29.3,15.5,30.38,NW,315,0.0,0.0,56,0.00,CLR,,0.00,WeatherDisplay:10.37,2013-12-13 06:21:00,
2013-12-13 01:26:00,29.5,15.7,30.37,NW,314,0.0,0.0,56,0.00,CLR,,0.00,WeatherDisplay:10.37,2013-12-13 06:26:00,
2013-12-13 01:31:00,29.6,15.4,30.37,NW,314,0.0,0.0,55,0.00,CLR,,0.00,WeatherDisplay:10.37,2013-12-13 06:31:00,
2013-12-13 01:36:00,29.6,15.8,30.36,NW,314,0.0,0.0,56,0.00,CLR,,0.00,WeatherDisplay:10.37,2013-12-13 06:36:00,
2013-12-13 01:41:00,29.7,15.5,30.37,NW,314,0.0,0.0,55,0.00,CLR,,0.00,WeatherDisplay:10.37,2013-12-13 06:41:00,
2013-12-13 01:46:00,29.7,15.5,30.36,NW,315,0.0,0.0,55,0.00,CLR,,0.00,WeatherDisplay:10.37,2013-12-13 06:46:00,
2013-12-13 01:51:00,29.7,15.9,30.37,NW,314,0.0,0.0,56,0.00,CLR,,0.00,WeatherDisplay:10.37,2013-12-13 06:51:00,
2013-12-13 01:56:00,29.7,15.9,30.36,NW,314,0.0,0.0,56,0.00,CLR,,0.00,WeatherDisplay:10.37,2013-12-13 06:56:00,
2013-12-13 02:01:00,29.7,15.9,30.37,NW,314,0.0,0.0,56,0.00,CLR,,0.00,WeatherDisplay:10.37,2013-12-13 07:01:00,
2013-12-13 02:06:00,29.6,15.4,30.37,NW,314,0.0,0.0,55,0.00,CLR,,0.00,WeatherDisplay:10.37,2013-12-13 07:06:00,
2013-12-13 02:11:00,29.6,15.4,30.37,NW,314,0.0,0.0,55,0.00,CLR,,0.00,WeatherDisplay:10.37,2013-12-13 07:11:00,
2013-12-13 02:16:00,29.6,15.4,30.37,NW,314,0.0,0.0,55,0.00,CLR,,0.00,WeatherDisplay:10.37,2013-12-13 07:16:00,
2013-12-13 02:21:00,29.7,15.5,30.38,NW,314,0.0,0.0,55,0.00,CLR,,0.00,WeatherDisplay:10.37,2013-12-13 07:21:00,
2013-12-13 02:26:00,29.8,15.6,30.38,NW,314,0.0,0.0,55,0.00,CLR,,0.00,WeatherDisplay:10.37,2013-12-13 07:26:00,
2013-12-13 02:31:00,29.9,15.7,30.38,NW,314,0.0,0.0,55,0.00,CLR,,0.00,WeatherDisplay:10.37,2013-12-13 07:31:00,
2013-12-13 02:36:00,30.0,15.3,30.38,NW,314,0.0,0.0,54,0.00,CLR,,0.00,WeatherDisplay:10.37,2013-12-13 07:36:00,
2013-12-13 02:41:00,30.1,15.4,30.38,NW,314,0.0,0.0,54,0.00,CLR,,0.00,WeatherDisplay:10.37,2013-12-13 07:41:00,
2013-12-13 02:46:00,30.1,15.4,30.38,NW,314,0.0,0.0,54,0.00,CLR,,0.00,WeatherDisplay:10.37,2013-12-13 07:46:00,
2013-12-13 02:51:00,30.2,15.5,30.38,NW,314,0.0,0.0,54,0.00,CLR,,0.00,WeatherDisplay:10.37,2013-12-13 07:51:00,
2013-12-13 02:56:00,30.2,15.5,30.38,NW,314,0.0,0.0,54,0.00,CLR,,0.00,WeatherDisplay:10.37,2013-12-13 07:56:00,
2013-12-13 03:01:00,30.2,15.5,30.39,NW,314,0.0,0.0,54,0.00,CLR,,0.00,WeatherDisplay:10.37,2013-12-13 08:01:00,
2013-12-13 03:06:00,30.1,15.9,30.39,NW,314,0.0,0.0,55,0.00,CLR,,0.00,WeatherDisplay:10.37,2013-12-13 08:06:00,
2013-12-13 03:11:00,30.0,15.8,30.40,NW,314,0.0,0.0,55,0.00,CLR,,0.00,WeatherDisplay:10.37,2013-12-13 08:11:00,
2013-12-13 03:16:00,29.8,16.4,30.40,NW,314,0.0,0.0,57,0.00,CLR,,0.00,WeatherDisplay:10.37,2013-12-13 08:16:00,
2013-12-13 03:21:00,29.6,16.6,30.40,NW,314,1.2,0.0,58,0.00,CLR,,0.00,WeatherDisplay:10.37,2013-12-13 08:21:00,
2013-12-13 03:26:00,29.3,16.3,30.40,NW,314,0.0,0.0,58,0.00,CLR,,0.00,WeatherDisplay:10.37,2013-12-13 08:26:00,
2013-12-13 03:31:00,29.0,16.8,30.40,NW,314,0.0,0.0,60,0.00,CLR,,0.00,WeatherDisplay:10.37,2013-12-13 08:31:00,
2013-12-13 03:36:00,28.8,16.3,30.40,NW,314,0.0,0.0,59,0.00,CLR,,0.00,WeatherDisplay:10.37,2013-12-13 08:36:00,
2013-12-13 03:41:00,28.6,16.5,30.40,NW,314,0.0,0.0,60,0.00,CLR,,0.00,WeatherDisplay:10.37,2013-12-13 08:41:00,
2013-12-13 03:46:00,28.4,16.3,30.40,NW,314,0.0,0.0,60,0.00,CLR,,0.00,WeatherDisplay:10.37,2013-12-13 08:46:00,
2013-12-13 03:51:00,28.3,16.6,30.39,NW,314,0.0,0.0,61,0.00,CLR,,0.00,WeatherDisplay:10.37,2013-12-13 08:51:00,
2013-12-13 03:56:00,28.1,16.7,30.39,NW,314,0.0,0.0,62,0.00,CLR,,0.00,WeatherDisplay:10.37,2013-12-13 08:56:00,
2013-12-13 04:01:00,28.0,16.6,30.39,NW,314,0.0,0.0,62,0.00,CLR,,0.00,WeatherDisplay:10.37,2013-12-13 09:01:00,
2013-12-13 04:06:00,27.9,16.6,30.38,NW,314,0.0,0.0,62,0.00,CLR,,0.00,WeatherDisplay:10.37,2013-12-13 09:06:00,
2013-12-13 04:11:00,27.8,16.8,30.38,NW,314,0.0,0.0,63,0.00,CLR,,0.00,WeatherDisplay:10.37,2013-12-13 09:11:00,
2013-12-13 04:16:00,27.7,16.7,30.38,NW,314,0.0,0.0,63,0.00,CLR,,0.00,WeatherDisplay:10.37,2013-12-13 09:16:00,
2013-12-13 04:21:00,27.6,17.0,30.38,NW,314,0.0,0.0,64,0.00,CLR,,0.00,WeatherDisplay:10.37,2013-12-13 09:21:00,
2013-12-13 04:26:00,27.6,17.0,30.38,NW,314,0.0,0.0,64,0.00,CLR,,0.00,WeatherDisplay:10.37,2013-12-13 09:26:00,
2013-12-13 04:31:00,27.5,16.9,30.38,NW,314,0.0,0.0,64,0.00,CLR,,0.00,WeatherDisplay:10.37,2013-12-13 09:31:00,
2013-12-13 04:36:00,27.4,16.8,30.38,NW,314,0.0,0.0,64,0.00,CLR,,0.00,WeatherDisplay:10.37,2013-12-13 09:36:00,
2013-12-13 04:41:00,27.3,16.7,30.38,NW,314,0.0,0.0,64,0.00,CLR,,0.00,WeatherDisplay:10.37,2013-12-13 09:41:00,
2013-12-13 04:46:00,27.2,17.0,30.38,NW,314,0.0,0.0,65,0.00,CLR,,0.00,WeatherDisplay:10.37,2013-12-13 09:46:00,
2013-12-13 04:51:00,27.0,17.8,30.37,NW,314,0.0,0.0,68,0.00,CLR,,0.00,WeatherDisplay:10.37,2013-12-13 09:51:00,
2013-12-13 04:56:00,26.7,17.9,30.37,NW,314,0.0,0.0,69,0.00,CLR,,0.00,WeatherDisplay:10.37,2013-12-13 09:56:00,
2013-12-13 05:01:00,26.5,17.4,30.37,NW,314,0.0,0.0,68,0.00,CLR,,0.00,WeatherDisplay:10.37,2013-12-13 10:01:00,
2013-12-13 05:06:00,26.4,17.3,30.37,NW,315,0.0,0.0,68,0.00,CLR,,0.00,WeatherDisplay:10.37,2013-12-13 10:06:00,
2013-12-13 05:11:00,26.2,17.1,30.37,NW,314,0.0,0.0,68,0.00,CLR,,0.00,WeatherDisplay:10.37,2013-12-13 10:11:00,
2013-12-13 05:16:00,26.1,16.6,30.37,NW,314,0.0,0.0,67,0.00,CLR,,0.00,WeatherDisplay:10.37,2013-12-13 10:16:00,
2013-12-13 05:21:00,26.1,16.3,30.37,NW,314,0.0,0.0,66,0.00,CLR,,0.00,WeatherDisplay:10.37,2013-12-13 10:21:00,
2013-12-13 05:26:00,26.1,16.3,30.37,NW,314,0.0,0.0,66,0.00,CLR,,0.00,WeatherDisplay:10.37,2013-12-13 10:26:00,
2013-12-13 05:31:00,26.1,16.6,30.37,NW,314,0.0,0.0,67,0.00,CLR,,0.00,WeatherDisplay:10.37,2013-12-13 10:31:00,
2013-12-13 05:36:00,26.2,16.7,30.37,NW,314,0.0,0.0,67,0.00,CLR,,0.00,WeatherDisplay:10.37,2013-12-13 10:36:00,
2013-12-13 05:41:00,26.2,16.7,30.37,NW,314,0.0,0.0,67,0.00,CLR,,0.00,WeatherDisplay:10.37,2013-12-13 10:41:00,
2013-12-13 05:46:00,26.2,16.4,30.37,NW,314,0.0,0.0,66,0.00,CLR,,0.00,WeatherDisplay:10.37,2013-12-13 10:46:00,
2013-12-13 05:51:00,26.2,16.7,30.38,NW,314,0.0,0.0,67,0.00,CLR,,0.00,WeatherDisplay:10.37,2013-12-13 10:51:00,
2013-12-13 05:56:00,26.2,16.7,30.38,NW,314,0.0,0.0,67,0.00,CLR,,0.00,WeatherDisplay:10.37,2013-12-13 10:56:00,
2013-12-13 06:01:00,26.1,16.3,30.38,NW,314,0.0,0.0,66,0.00,CLR,,0.00,WeatherDisplay:10.37,2013-12-13 11:01:00,
2013-12-13 06:06:00,26.1,16.3,30.38,NW,314,0.0,0.0,66,0.00,CLR,,0.00,WeatherDisplay:10.37,2013-12-13 11:06:00,
2013-12-13 06:11:00,26.0,16.5,30.38,NW,314,0.0,0.0,67,0.00,CLR,,0.00,WeatherDisplay:10.37,2013-12-13 11:11:00,
2013-12-13 06:16:00,25.8,17.7,30.38,NW,314,0.0,0.0,71,0.00,CLR,,0.00,WeatherDisplay:10.37,2013-12-13 11:16:00,
2013-12-13 06:21:00,25.6,17.8,30.38,NW,314,0.0,0.0,72,0.00,CLR,,0.00,WeatherDisplay:10.37,2013-12-13 11:21:00,
2013-12-13 06:26:00,25.1,18.0,30.38,NW,314,0.0,0.0,74,0.00,CLR,,0.00,WeatherDisplay:10.37,2013-12-13 11:26:00,
2013-12-13 06:31:00,24.7,17.9,30.38,NW,314,0.0,0.0,75,0.00,CLR,,0.00,WeatherDisplay:10.37,2013-12-13 11:31:00,
2013-12-13 06:36:00,24.3,17.8,30.38,NW,314,0.0,0.0,76,0.00,CLR,,0.00,WeatherDisplay:10.37,2013-12-13 11:36:00,
2013-12-13 06:41:00,24.0,17.5,30.38,NW,314,0.0,0.0,76,0.00,CLR,,0.00,WeatherDisplay:10.37,2013-12-13 11:41:00,
2013-12-13 06:46:00,23.8,17.0,30.39,NW,314,0.0,0.0,75,0.00,CLR,,0.00,WeatherDisplay:10.37,2013-12-13 11:46:00,
2013-12-13 06:51:00,23.6,16.5,30.38,NW,314,0.0,0.0,74,0.00,CLR,,0.00,WeatherDisplay:10.37,2013-12-13 11:51:00,
2013-12-13 06:56:00,23.4,16.3,30.39,NW,314,0.0,0.0,74,0.00,CLR,,0.00,WeatherDisplay:10.37,2013-12-13 11:56:00,
2013-12-13 07:01:00,23.4,16.6,30.38,NW,314,0.0,0.0,75,0.00,CLR,,0.00,WeatherDisplay:10.37,2013-12-13 12:01:00,
2013-12-13 07:06:00,23.4,16.3,30.38,NW,314,0.0,0.0,74,0.00,CLR,,0.00,WeatherDisplay:10.37,2013-12-13 12:06:00,
2013-12-13 07:11:00,23.5,16.7,30.39,NW,314,0.0,0.0,75,0.00,CLR,,0.00,WeatherDisplay:10.37,2013-12-13 12:11:00,
2013-12-13 07:16:00,23.6,16.8,30.39,NW,314,0.0,0.0,75,0.00,CLR,,0.00,WeatherDisplay:10.37,2013-12-13 12:16:00,
2013-12-13 07:21:00,23.6,17.4,30.39,NW,314,0.0,0.0,77,0.00,CLR,,0.00,WeatherDisplay:10.37,2013-12-13 12:21:00,
2013-12-13 07:24:00,23.6,17.4,30.39,NW,314,0.0,0.0,77,0.00,CLR,,0.00,WeatherDisplay:10.37,2013-12-13 12:24:00,
2013-12-13 07:29:00,23.4,17.6,30.39,NW,315,0.0,0.0,78,0.00,CLR,,0.00,WeatherDisplay:10.37,2013-12-13 12:29:00,
2013-12-13 07:34:00,23.4,17.6,30.39,NW,314,0.0,0.0,78,0.00,CLR,,0.00,WeatherDisplay:10.37,2013-12-13 12:34:00,
2013-12-13 07:39:00,23.3,17.7,30.39,NW,314,0.0,0.0,79,0.00,CLR,,0.00,WeatherDisplay:10.37,2013-12-13 12:39:00,
2013-12-13 07:44:00,23.2,17.7,30.39,NW,314,0.0,0.0,79,0.00,CLR,,0.00,WeatherDisplay:10.37,2013-12-13 12:44:00,
2013-12-13 07:49:00,23.2,17.7,30.39,NW,314,0.0,0.0,79,0.00,CLR,,0.00,WeatherDisplay:10.37,2013-12-13 12:49:00,
2013-12-13 07:54:00,23.3,17.7,30.40,NW,314,0.0,0.0,79,0.00,CLR,,0.00,WeatherDisplay:10.37,2013-12-13 12:54:00,
2013-12-13 07:59:00,23.5,17.9,30.40,NW,314,0.0,0.0,79,0.00,CLR,,0.00,WeatherDisplay:10.37,2013-12-13 12:59:00,
2013-12-13 08:04:00,23.6,18.0,30.39,NW,314,0.0,0.0,79,0.00,CLR,,0.00,WeatherDisplay:10.37,2013-12-13 13:04:00,
2013-12-13 08:09:00,24.0,18.7,30.39,NW,314,0.0,0.0,80,0.00,CLR,,0.00,WeatherDisplay:10.37,2013-12-13 13:09:00,
2013-12-13 08:14:00,24.3,19.3,30.39,NW,314,0.0,0.0,81,0.00,CLR,,0.00,WeatherDisplay:10.37,2013-12-13 13:14:00,
2013-12-13 08:19:00,24.4,19.4,30.39,NW,314,0.0,0.0,81,0.00,CLR,,0.00,WeatherDisplay:10.37,2013-12-13 13:19:00,
2013-12-13 08:24:00,24.6,19.3,30.39,NW,314,0.0,0.0,80,0.00,CLR,,0.00,WeatherDisplay:10.37,2013-12-13 13:24:00,
2013-12-13 08:29:00,24.8,19.2,30.39,NW,314,0.0,0.0,79,0.00,CLR,,0.00,WeatherDisplay:10.37,2013-12-13 13:29:00,
2013-12-13 08:34:00,25.2,20.5,30.39,NW,314,0.0,0.0,82,0.00,CLR,,0.00,WeatherDisplay:10.37,2013-12-13 13:34:00,
2013-12-13 08:39:00,25.9,21.2,30.39,NW,314,0.0,0.0,82,0.00,CLR,,0.00,WeatherDisplay:10.37,2013-12-13 13:39:00,
2013-12-13 08:44:00,26.4,20.8,30.39,NW,315,0.0,0.0,79,0.00,CLR,,0.00,WeatherDisplay:10.37,2013-12-13 13:44:00,
2013-12-13 08:49:00,27.1,21.7,30.39,NW,314,0.0,0.0,80,0.00,CLR,,0.00,WeatherDisplay:10.37,2013-12-13 13:49:00,
2013-12-13 08:54:00,27.9,23.1,30.40,NW,314,0.0,0.0,82,0.00,CLR,,0.00,WeatherDisplay:10.37,2013-12-13 13:54:00,
2013-12-13 08:59:00,28.7,23.9,30.40,NW,314,0.0,0.0,82,0.00,CLR,,0.00,WeatherDisplay:10.37,2013-12-13 13:59:00,
2013-12-13 09:04:00,29.6,24.8,30.40,NW,314,0.0,0.0,82,0.00,CLR,,0.00,WeatherDisplay:10.37,2013-12-13 14:04:00,
2013-12-13 09:09:00,30.3,24.6,30.40,NW,314,0.0,0.0,79,0.00,CLR,,0.00,WeatherDisplay:10.37,2013-12-13 14:09:00,
2013-12-13 09:14:00,31.2,24.5,30.40,NW,314,0.0,0.0,76,0.00,CLR,,0.00,WeatherDisplay:10.37,2013-12-13 14:14:00,
2013-12-13 09:19:00,32.1,24.4,30.40,NW,315,0.0,0.0,73,0.00,CLR,,0.00,WeatherDisplay:10.37,2013-12-13 14:19:00,
2013-12-13 09:24:00,33.0,23.9,30.40,NW,314,0.0,0.0,69,0.00,CLR,,0.00,WeatherDisplay:10.37,2013-12-13 14:24:00,
2013-12-13 09:29:00,34.0,23.1,30.40,NW,314,0.0,0.0,64,0.00,CLR,,0.00,WeatherDisplay:10.37,2013-12-13 14:29:00,
2013-12-13 09:34:00,34.8,22.7,30.40,NW,315,0.0,0.0,61,0.00,CLR,,0.00,WeatherDisplay:10.37,2013-12-13 14:34:00,
2013-12-13 09:39:00,35.5,23.4,30.40,NW,311,0.0,0.0,61,0.00,CLR,,0.00,WeatherDisplay:10.37,2013-12-13 14:39:00,
2013-12-13 09:44:00,36.2,23.6,30.40,NW,311,0.0,0.0,60,0.00,CLR,,0.00,WeatherDisplay:10.37,2013-12-13 14:44:00,
2013-12-13 09:49:00,36.9,23.9,30.40,NW,311,1.2,1.2,59,0.00,CLR,,0.00,WeatherDisplay:10.37,2013-12-13 14:49:00,
2013-12-13 09:54:00,37.5,23.2,30.40,NW,311,0.0,0.0,56,0.00,CLR,,0.00,WeatherDisplay:10.37,2013-12-13 14:54:00,
2013-12-13 09:59:00,38.0,23.7,30.40,NW,311,3.5,3.5,56,0.00,CLR,,0.00,WeatherDisplay:10.37,2013-12-13 14:59:00,
2013-12-13 10:04:00,38.5,23.7,30.40,NW,309,0.0,0.0,55,0.00,CLR,,0.00,WeatherDisplay:10.37,2013-12-13 15:04:00,
2013-12-13 10:09:00,38.9,23.2,30.40,West,273,3.5,3.5,53,0.00,CLR,,0.00,WeatherDisplay:10.37,2013-12-13 15:09:00,
2013-12-13 10:14:00,39.4,22.3,30.40,WSW,245,3.5,3.5,50,0.00,CLR,,0.00,WeatherDisplay:10.37,2013-12-13 15:14:00,
2013-12-13 10:19:00,39.9,20.8,30.40,WSW,244,4.6,4.6,46,0.00,CLR,,0.00,WeatherDisplay:10.37,2013-12-13 15:19:00,
2013-12-13 10:24:00,40.4,20.7,30.40,SW,234,3.5,3.5,45,0.00,CLR,,0.00,WeatherDisplay:10.37,2013-12-13 15:24:00,
2013-12-13 10:29:00,40.7,21.0,30.40,WSW,244,3.5,3.5,45,0.00,CLR,,0.00,WeatherDisplay:10.37,2013-12-13 15:29:00,
2013-12-13 10:34:00,41.1,20.8,30.40,WSW,256,4.0,4.0,44,0.00,CLR,,0.00,WeatherDisplay:10.37,2013-12-13 15:34:00,
2013-12-13 10:39:00,41.5,21.7,30.40,WSW,238,5.8,5.8,45,0.00,CLR,,0.00,WeatherDisplay:10.37,2013-12-13 15:39:00,
2013-12-13 10:44:00,41.8,21.5,30.40,WSW,245,3.5,3.5,44,0.00,CLR,,0.00,WeatherDisplay:10.37,2013-12-13 15:44:00,
2013-12-13 10:49:00,42.2,21.8,30.40,WSW,258,5.8,5.8,44,0.00,CLR,,0.00,WeatherDisplay:10.37,2013-12-13 15:49:00,
2013-12-13 10:54:00,42.3,21.4,30.39,WSW,247,2.3,2.3,43,0.00,CLR,,0.00,WeatherDisplay:10.37,2013-12-13 15:54:00,
2013-12-13 10:59:00,42.6,21.6,30.39,WSW,244,3.5,3.5,43,0.00,CLR,,0.00,WeatherDisplay:10.37,2013-12-13 15:59:00,
2013-12-13 11:04:00,43.1,22.1,30.39,South,188,3.5,3.5,43,0.00,CLR,,0.00,WeatherDisplay:10.37,2013-12-13 16:04:00,
2013-12-13 11:09:00,43.5,23.0,30.39,WSW,239,0.0,0.0,44,0.00,CLR,,0.00,WeatherDisplay:10.37,2013-12-13 16:09:00,
2013-12-13 11:14:00,43.8,23.3,30.39,SW,217,2.3,2.3,44,0.00,CLR,,0.00,WeatherDisplay:10.37,2013-12-13 16:14:00,
2013-12-13 11:19:00,44.3,23.2,30.38,SW,234,3.5,3.5,43,0.00,CLR,,0.00,WeatherDisplay:10.37,2013-12-13 16:19:00,
2013-12-13 11:24:00,44.6,22.3,30.38,SW,230,5.8,5.8,41,0.00,CLR,,0.00,WeatherDisplay:10.37,2013-12-13 16:24:00,
2013-12-13 11:29:00,44.7,22.4,30.38,WSW,246,9.2,9.2,41,0.00,CLR,,0.00,WeatherDisplay:10.37,2013-12-13 16:29:00,
2013-12-13 11:34:00,44.8,21.9,30.37,WSW,238,6.9,6.9,40,0.00,CLR,,0.00,WeatherDisplay:10.37,2013-12-13 16:34:00,
2013-12-13 11:39:00,45.0,21.5,30.37,WSW,240,3.5,3.5,39,0.00,CLR,,0.00,WeatherDisplay:10.37,2013-12-13 16:39:00,
2013-12-13 11:44:00,45.4,22.5,30.37,SSE,164,2.3,2.3,40,0.00,CLR,,0.00,WeatherDisplay:10.37,2013-12-13 16:44:00,
2013-12-13 11:49:00,46.0,22.4,30.36,SSW,207,5.8,5.8,39,0.00,CLR,,0.00,WeatherDisplay:10.37,2013-12-13 16:49:00,
2013-12-13 11:54:00,46.4,22.1,30.36,WSW,250,6.9,6.9,38,0.00,CLR,,0.00,WeatherDisplay:10.37,2013-12-13 16:54:00,
2013-12-13 11:59:00,46.7,22.4,30.36,SSW,198,4.0,4.0,38,0.00,CLR,,0.00,WeatherDisplay:10.37,2013-12-13 16:59:00,
2013-12-13 12:04:00,46.8,20.6,30.35,SW,225,9.2,9.2,35,0.00,CLR,,0.00,WeatherDisplay:10.37,2013-12-13 17:04:00,
2013-12-13 12:09:00,46.8,21.2,30.35,West,262,5.8,5.8,36,0.00,CLR,,0.00,WeatherDisplay:10.37,2013-12-13 17:09:00,
2013-12-13 12:14:00,47.1,22.1,30.35,WSW,251,8.1,8.1,37,0.00,CLR,,0.00,WeatherDisplay:10.37,2013-12-13 17:14:00,
2013-12-13 12:19:00,47.3,22.3,30.34,SW,216,5.8,5.8,37,0.00,CLR,,0.00,WeatherDisplay:10.37,2013-12-13 17:19:00,
2013-12-13 12:24:00,47.7,22.7,30.34,WSW,250,4.6,4.6,37,0.00,CLR,,0.00,WeatherDisplay:10.37,2013-12-13 17:24:00,
2013-12-13 12:29:00,48.1,23.7,30.34,South,182,4.0,4.0,38,0.00,CLR,,0.00,WeatherDisplay:10.37,2013-12-13 17:29:00,
2013-12-13 12:34:00,48.5,23.4,30.34,West,261,11.5,11.5,37,0.00,CLR,,0.00,WeatherDisplay:10.37,2013-12-13 17:34:00,
2013-12-13 12:39:00,48.4,22.6,30.33,WSW,257,5.8,5.8,36,0.00,CLR,,0.00,WeatherDisplay:10.37,2013-12-13 17:39:00,
2013-12-13 12:44:00,48.4,23.3,30.33,WSW,242,12.7,12.7,37,0.00,CLR,,0.00,WeatherDisplay:10.37,2013-12-13 17:44:00,
2013-12-13 12:49:00,48.4,22.0,30.33,WSW,251,11.5,11.5,35,0.00,CLR,,0.00,WeatherDisplay:10.37,2013-12-13 17:49:00,
2013-12-13 12:54:00,48.4,22.6,30.33,WSW,248,10.4,10.4,36,0.00,CLR,,0.00,WeatherDisplay:10.37,2013-12-13 17:54:00,
2013-12-13 12:59:00,48.3,22.5,30.33,SW,236,10.4,10.4,36,0.00,CLR,,0.00,WeatherDisplay:10.37,2013-12-13 17:59:00,
2013-12-13 13:04:00,48.2,22.5,30.33,WSW,249,6.9,6.9,36,0.00,CLR,,0.00,WeatherDisplay:10.37,2013-12-13 18:04:00,
2013-12-13 13:09:00,48.3,22.5,30.33,SSW,196,10.4,10.4,36,0.00,CLR,,0.00,WeatherDisplay:10.37,2013-12-13 18:09:00,
2013-12-13 13:14:00,48.5,22.7,30.33,WSW,257,8.1,8.1,36,0.00,CLR,,0.00,WeatherDisplay:10.37,2013-12-13 18:14:00,
2013-12-13 13:19:00,48.8,23.0,30.33,SW,215,4.6,4.6,36,0.00,CLR,,0.00,WeatherDisplay:10.37,2013-12-13 18:19:00,
2013-12-13 13:24:00,49.0,22.5,30.33,SW,232,10.4,10.4,35,0.00,CLR,,0.00,WeatherDisplay:10.37,2013-12-13 18:24:00,
2013-12-13 13:29:00,49.2,24.0,30.32,WSW,248,10.4,10.4,37,0.00,CLR,,0.00,WeatherDisplay:10.37,2013-12-13 18:29:00,
2013-12-13 13:34:00,49.4,24.2,30.32,SW,214,11.0,11.0,37,0.00,CLR,,0.00,WeatherDisplay:10.37,2013-12-13 18:34:00,
2013-12-13 13:39:00,49.6,23.7,30.32,SSW,209,6.0,6.0,36,0.00,CLR,,0.00,WeatherDisplay:10.37,2013-12-13 18:39:00,
2013-12-13 13:44:00,49.9,24.0,30.31,West,276,11.5,11.5,36,0.00,CLR,,0.00,WeatherDisplay:10.37,2013-12-13 18:44:00,
2013-12-13 13:49:00,49.9,23.3,30.31,WSW,250,5.8,5.8,35,0.00,CLR,,0.00,WeatherDisplay:10.37,2013-12-13 18:49:00,
2013-12-13 13:54:00,50.1,22.1,30.31,SW,221,12.7,12.7,33,0.00,CLR,,0.00,WeatherDisplay:10.37,2013-12-13 18:54:00,
2013-12-13 13:59:00,49.9,21.9,30.30,WSW,250,11.5,11.5,33,0.00,CLR,,0.00,WeatherDisplay:10.37,2013-12-13 18:59:00,
2013-12-13 14:04:00,50.0,24.1,30.30,SW,232,8.1,8.1,36,0.00,CLR,,0.00,WeatherDisplay:10.37,2013-12-13 19:04:00,
2013-12-13 14:09:00,50.4,23.1,30.30,WSW,238,8.1,8.1,34,0.00,CLR,,0.00,WeatherDisplay:10.37,2013-12-13 19:09:00,
2013-12-13 14:14:00,50.6,23.9,30.30,WSW,250,11.5,11.5,35,0.00,CLR,,0.00,WeatherDisplay:10.37,2013-12-13 19:14:00,
2013-12-13 14:19:00,50.7,24.0,30.30,SW,235,4.0,4.0,35,0.00,CLR,,0.00,WeatherDisplay:10.37,2013-12-13 19:19:00,
2013-12-13 14:24:00,50.9,24.2,30.30,WSW,253,11.5,11.5,35,0.00,CLR,,0.00,WeatherDisplay:10.37,2013-12-13 19:24:00,
2013-12-13 14:29:00,50.7,24.7,30.30,WSW,240,9.2,9.2,36,0.00,CLR,,0.00,WeatherDisplay:10.37,2013-12-13 19:29:00,
2013-12-13 14:34:00,50.4,23.7,30.30,WSW,249,7.0,7.0,35,0.00,CLR,,0.00,WeatherDisplay:10.37,2013-12-13 19:34:00,
2013-12-13 14:39:00,50.2,24.2,30.30,WSW,244,10.4,10.4,36,0.00,CLR,,0.00,WeatherDisplay:10.37,2013-12-13 19:39:00,
2013-12-13 14:44:00,50.2,24.2,30.30,South,191,5.0,5.0,36,0.00,CLR,,0.00,WeatherDisplay:10.37,2013-12-13 19:44:00,
2013-12-13 14:49:00,50.3,24.3,30.29,West,261,4.0,4.0,36,0.00,CLR,,0.00,WeatherDisplay:10.37,2013-12-13 19:49:00,
2013-12-13 14:54:00,50.3,24.3,30.30,WSW,247,6.9,6.9,36,0.00,CLR,,0.00,WeatherDisplay:10.37,2013-12-13 19:54:00,
2013-12-13 14:59:00,50.1,24.8,30.30,WSW,257,11.5,11.5,37,0.00,CLR,,0.00,WeatherDisplay:10.37,2013-12-13 19:59:00,
2013-12-13 15:04:00,49.9,24.6,30.30,West,259,10.4,10.4,37,0.00,CLR,,0.00,WeatherDisplay:10.37,2013-12-13 20:04:00,
2013-12-13 15:09:00,49.7,25.7,30.29,WSW,244,10.4,10.4,39,0.00,CLR,,0.00,WeatherDisplay:10.37,2013-12-13 20:09:00,
2013-12-13 15:14:00,49.9,25.3,30.29,SW,236,9.2,9.2,38,0.00,CLR,,0.00,WeatherDisplay:10.37,2013-12-13 20:14:00,
2013-12-13 15:19:00,50.0,25.4,30.29,WSW,240,9.2,9.2,38,0.00,CLR,,0.00,WeatherDisplay:10.37,2013-12-13 20:19:00,
2013-12-13 15:24:00,50.2,26.2,30.29,SW,227,5.8,5.8,39,0.00,CLR,,0.00,WeatherDisplay:10.37,2013-12-13 20:24:00,
2013-12-13 15:29:00,50.4,26.3,30.29,SW,216,5.8,5.8,39,0.00,CLR,,0.00,WeatherDisplay:10.37,2013-12-13 20:29:00,
2013-12-13 15:34:00,50.6,26.5,30.29,WSW,238,3.5,3.5,39,0.00,CLR,,0.00,WeatherDisplay:10.37,2013-12-13 20:34:00,
2013-12-13 15:39:00,50.9,26.2,30.30,SSW,200,5.8,5.8,38,0.00,CLR,,0.00,WeatherDisplay:10.37,2013-12-13 20:39:00,
2013-12-13 15:44:00,50.8,26.7,30.30,SW,236,6.9,6.9,39,0.00,CLR,,0.00,WeatherDisplay:10.37,2013-12-13 20:44:00,
2013-12-13 15:49:00,50.8,27.3,30.30,WSW,250,6.9,6.9,40,0.00,CLR,,0.00,WeatherDisplay:10.37,2013-12-13 20:49:00,
2013-12-13 15:54:00,50.6,27.1,30.30,WSW,253,9.0,9.0,40,0.00,CLR,,0.00,WeatherDisplay:10.37,2013-12-13 20:54:00,
2013-12-13 15:59:00,50.5,27.0,30.30,WSW,240,6.9,6.9,40,0.00,CLR,,0.00,WeatherDisplay:10.37,2013-12-13 20:59:00,
2013-12-13 16:04:00,50.4,27.0,30.30,WSW,246,4.6,4.6,40,0.00,CLR,,0.00,WeatherDisplay:10.37,2013-12-13 21:04:00,
2013-12-13 16:09:00,50.4,27.0,30.29,South,190,6.9,6.9,40,0.00,CLR,,0.00,WeatherDisplay:10.37,2013-12-13 21:09:00,
2013-12-13 16:14:00,50.4,27.0,30.29,SW,234,3.5,3.5,40,0.00,CLR,,0.00,WeatherDisplay:10.37,2013-12-13 21:14:00,
2013-12-13 16:19:00,50.3,27.5,30.29,WSW,242,1.0,0.0,41,0.00,CLR,,0.00,WeatherDisplay:10.37,2013-12-13 21:19:00,
2013-12-13 16:24:00,50.3,26.9,30.29,SW,221,4.6,4.6,40,0.00,CLR,,0.00,WeatherDisplay:10.37,2013-12-13 21:24:00,
2013-12-13 16:29:00,50.1,26.7,30.29,WSW,244,5.8,5.8,40,0.00,CLR,,0.00,WeatherDisplay:10.37,2013-12-13 21:29:00,
2013-12-13 16:34:00,49.9,27.1,30.29,WSW,244,0.0,0.0,41,0.00,CLR,,0.00,WeatherDisplay:10.37,2013-12-13 21:34:00,
2013-12-13 16:39:00,49.7,26.9,30.29,WSW,241,0.0,0.0,41,0.00,CLR,,0.00,WeatherDisplay:10.37,2013-12-13 21:39:00,
2013-12-13 16:44:00,49.4,26.7,30.29,WSW,242,0.0,0.0,41,0.00,CLR,,0.00,WeatherDisplay:10.37,2013-12-13 21:44:00,
2013-12-13 16:49:00,49.2,27.1,30.30,WSW,242,0.0,0.0,42,0.00,CLR,,0.00,WeatherDisplay:10.37,2013-12-13 21:49:00,
2013-12-13 16:54:00,49.1,27.0,30.30,WSW,241,0.0,0.0,42,0.00,CLR,,0.00,WeatherDisplay:10.37,2013-12-13 21:54:00,
2013-12-13 16:59:00,48.8,26.7,30.30,WSW,242,0.0,0.0,42,0.00,CLR,,0.00,WeatherDisplay:10.37,2013-12-13 21:59:00,
2013-12-13 17:04:00,48.5,27.0,30.30,WSW,242,0.0,0.0,43,0.00,CLR,,0.00,WeatherDisplay:10.37,2013-12-13 22:04:00,
2013-12-13 17:09:00,48.1,26.6,30.30,WSW,242,0.0,0.0,43,0.00,CLR,,0.00,WeatherDisplay:10.37,2013-12-13 22:09:00,
2013-12-13 17:14:00,47.7,26.3,30.30,WSW,242,0.0,0.0,43,0.00,CLR,,0.00,WeatherDisplay:10.37,2013-12-13 22:14:00,
2013-12-13 17:19:00,47.3,26.5,30.29,WSW,242,0.0,0.0,44,0.00,CLR,,0.00,WeatherDisplay:10.37,2013-12-13 22:19:00,
2013-12-13 17:24:00,46.8,26.0,30.29,WSW,242,0.0,0.0,44,0.00,CLR,,0.00,WeatherDisplay:10.37,2013-12-13 22:24:00,
2013-12-13 17:29:00,46.4,26.2,30.29,WSW,242,0.0,0.0,45,0.00,CLR,,0.00,WeatherDisplay:10.37,2013-12-13 22:29:00,
2013-12-13 17:34:00,46.0,25.8,30.30,WSW,241,0.0,0.0,45,0.00,CLR,,0.00,WeatherDisplay:10.37,2013-12-13 22:34:00,
2013-12-13 17:39:00,45.6,26.0,30.29,WSW,242,0.0,0.0,46,0.00,CLR,,0.00,WeatherDisplay:10.37,2013-12-13 22:39:00,
2013-12-13 17:44:00,45.2,25.6,30.29,WSW,242,0.0,0.0,46,0.00,CLR,,0.00,WeatherDisplay:10.37,2013-12-13 22:44:00,
2013-12-13 17:49:00,44.9,25.9,30.30,WSW,242,0.0,0.0,47,0.00,CLR,,0.00,WeatherDisplay:10.37,2013-12-13 22:49:00,
2013-12-13 17:54:00,44.5,26.5,30.29,WSW,242,0.0,0.0,49,0.00,CLR,,0.00,WeatherDisplay:10.37,2013-12-13 22:54:00,
2013-12-13 17:59:00,44.1,26.1,30.29,WSW,241,0.0,0.0,49,0.00,CLR,,0.00,WeatherDisplay:10.37,2013-12-13 22:59:00,
2013-12-13 18:04:00,43.7,25.8,30.29,WSW,241,0.0,0.0,49,0.00,CLR,,0.00,WeatherDisplay:10.37,2013-12-13 23:04:00,
2013-12-13 18:09:00,43.4,25.5,30.30,WSW,241,0.0,0.0,49,0.00,CLR,,0.00,WeatherDisplay:10.37,2013-12-13 23:09:00,
2013-12-13 18:14:00,43.2,25.3,30.30,WSW,242,0.0,0.0,49,0.00,CLR,,0.00,WeatherDisplay:10.37,2013-12-13 23:14:00,
2013-12-13 18:19:00,42.9,25.5,30.30,WSW,242,0.0,0.0,50,0.00,CLR,,0.00,WeatherDisplay:10.37,2013-12-13 23:19:00,
2013-12-13 18:24:00,42.8,25.4,30.30,WSW,242,0.0,0.0,50,0.00,CLR,,0.00,WeatherDisplay:10.37,2013-12-13 23:24:00,
2013-12-13 18:29:00,42.6,25.7,30.30,WSW,241,0.0,0.0,51,0.00,CLR,,0.00,WeatherDisplay:10.37,2013-12-13 23:29:00,
2013-12-13 18:34:00,42.5,25.6,30.30,WSW,242,0.0,0.0,51,0.00,CLR,,0.00,WeatherDisplay:10.37,2013-12-13 23:34:00,
2013-12-13 18:39:00,42.3,25.4,30.30,WSW,242,0.0,0.0,51,0.00,CLR,,0.00,WeatherDisplay:10.37,2013-12-13 23:39:00,
2013-12-13 18:44:00,42.1,25.7,30.30,WSW,242,0.0,0.0,52,0.00,CLR,,0.00,WeatherDisplay:10.37,2013-12-13 23:44:00,
2013-12-13 18:49:00,41.9,25.5,30.30,WSW,242,0.0,0.0,52,0.00,CLR,,0.00,WeatherDisplay:10.37,2013-12-13 23:49:00,
2013-12-13 18:54:00,41.8,25.4,30.30,WSW,242,0.0,0.0,52,0.00,CLR,,0.00,WeatherDisplay:10.37,2013-12-13 23:54:00,
2013-12-13 18:59:00,41.6,25.3,30.30,WSW,242,0.0,0.0,52,0.00,CLR,,0.00,WeatherDisplay:10.37,2013-12-13 23:59:00,
2013-12-13 19:04:00,41.5,25.2,30.31,WSW,242,0.0,0.0,52,0.00,CLR,,0.00,WeatherDisplay:10.37,2013-12-14 00:04:00,
2013-12-13 19:09:00,41.5,25.6,30.31,WSW,242,0.0,0.0,53,0.00,CLR,,0.00,WeatherDisplay:10.37,2013-12-14 00:09:00,
2013-12-13 19:14:00,41.4,25.5,30.32,WSW,242,0.0,0.0,53,0.00,CLR,,0.00,WeatherDisplay:10.37,2013-12-14 00:14:00,
2013-12-13 19:19:00,41.3,25.4,30.32,WSW,241,0.0,0.0,53,0.00,CLR,,0.00,WeatherDisplay:10.37,2013-12-14 00:19:00,
2013-12-13 19:24:00,41.2,25.8,30.32,WSW,242,0.0,0.0,54,0.00,CLR,,0.00,WeatherDisplay:10.37,2013-12-14 00:24:00,
2013-12-13 19:29:00,41.1,26.1,30.31,WSW,242,0.0,0.0,55,0.00,CLR,,0.00,WeatherDisplay:10.37,2013-12-14 00:29:00,
2013-12-13 19:34:00,40.6,25.7,30.31,WSW,242,0.0,0.0,55,0.00,CLR,,0.00,WeatherDisplay:10.37,2013-12-14 00:34:00,
2013-12-13 19:39:00,40.4,25.5,30.31,WSW,242,2.3,2.3,55,0.00,CLR,,0.00,WeatherDisplay:10.37,2013-12-14 00:39:00,
2013-12-13 19:44:00,40.2,26.2,30.31,WSW,241,0.0,0.0,57,0.00,CLR,,0.00,WeatherDisplay:10.37,2013-12-14 00:44:00,
2013-12-13 19:49:00,40.1,25.6,30.30,WSW,242,2.3,2.3,56,0.00,CLR,,0.00,WeatherDisplay:10.37,2013-12-14 00:49:00,
2013-12-13 19:54:00,39.9,25.9,30.29,WSW,242,0.0,0.0,57,0.00,CLR,,0.00,WeatherDisplay:10.37,2013-12-14 00:54:00,
2013-12-13 19:59:00,39.8,25.4,30.31,WSW,242,0.0,0.0,56,0.00,CLR,,0.00,WeatherDisplay:10.37,2013-12-14 00:59:00,
2013-12-13 20:04:00,39.8,25.4,30.31,WSW,242,0.0,0.0,56,0.00,CLR,,0.00,WeatherDisplay:10.37,2013-12-14 01:04:00,
2013-12-13 20:09:00,40.0,25.6,30.31,WSW,242,0.0,0.0,56,0.00,CLR,,0.00,WeatherDisplay:10.37,2013-12-14 01:09:00,
2013-12-13 20:13:00,40.1,26.1,30.31,WSW,241,0.0,0.0,57,0.00,CLR,,0.00,WeatherDisplay:10.37,2013-12-14 01:13:00,
2013-12-13 20:18:00,40.3,26.7,30.32,WSW,241,0.0,0.0,58,0.00,CLR,,0.00,WeatherDisplay:10.37,2013-12-14 01:18:00,
2013-12-13 20:23:00,40.4,26.8,30.32,WSW,242,0.0,0.0,58,0.00,CLR,,0.00,WeatherDisplay:10.37,2013-12-14 01:23:00,
2013-12-13 20:28:00,40.6,27.0,30.31,WSW,242,0.0,0.0,58,0.00,CLR,,0.00,WeatherDisplay:10.37,2013-12-14 01:28:00,
2013-12-13 20:33:00,40.9,27.2,30.31,WSW,241,0.0,0.0,58,0.00,CLR,,0.00,WeatherDisplay:10.37,2013-12-14 01:33:00,
2013-12-13 20:38:00,41.1,27.4,30.32,WSW,242,0.0,0.0,58,0.00,CLR,,0.00,WeatherDisplay:10.37,2013-12-14 01:38:00,
2013-12-13 20:43:00,41.2,27.9,30.32,WSW,241,0.0,0.0,59,0.00,CLR,,0.00,WeatherDisplay:10.37,2013-12-14 01:43:00,
2013-12-13 20:48:00,41.3,27.6,30.32,WSW,241,0.0,0.0,58,0.00,CLR,,0.00,WeatherDisplay:10.37,2013-12-14 01:48:00,
2013-12-13 20:53:00,41.5,27.0,30.32,WSW,242,0.0,0.0,56,0.00,CLR,,0.00,WeatherDisplay:10.37,2013-12-14 01:53:00,
2013-12-13 20:58:00,41.6,27.1,30.32,WSW,242,0.0,0.0,56,0.00,CLR,,0.00,WeatherDisplay:10.37,2013-12-14 01:58:00,
2013-12-13 21:03:00,41.7,26.7,30.32,WSW,241,0.0,0.0,55,0.00,CLR,,0.00,WeatherDisplay:10.37,2013-12-14 02:03:00,
2013-12-13 21:08:00,41.9,28.6,30.31,WSW,242,0.0,0.0,59,0.00,CLR,,0.00,WeatherDisplay:10.37,2013-12-14 02:08:00,
2013-12-13 21:13:00,42.0,27.4,30.31,WSW,242,0.0,0.0,56,0.00,CLR,,0.00,WeatherDisplay:10.37,2013-12-14 02:13:00,
2013-12-13 21:18:00,42.0,27.9,30.32,WSW,242,0.0,0.0,57,0.00,CLR,,0.00,WeatherDisplay:10.37,2013-12-14 02:18:00,
2013-12-13 21:23:00,42.1,27.5,30.32,WSW,242,0.0,0.0,56,0.00,CLR,,0.00,WeatherDisplay:10.37,2013-12-14 02:23:00,
2013-12-13 21:28:00,42.2,28.0,30.31,WSW,242,0.0,0.0,57,0.00,CLR,,0.00,WeatherDisplay:10.37,2013-12-14 02:28:00,
2013-12-13 21:33:00,42.3,27.7,30.32,WSW,242,0.0,0.0,56,0.00,CLR,,0.00,WeatherDisplay:10.37,2013-12-14 02:33:00,
2013-12-13 21:38:00,42.4,29.9,30.32,WSW,242,0.0,0.0,61,0.00,CLR,,0.00,WeatherDisplay:10.37,2013-12-14 02:38:00,
2013-12-13 21:43:00,42.3,28.6,30.32,WSW,242,0.0,0.0,58,0.00,CLR,,0.00,WeatherDisplay:10.37,2013-12-14 02:43:00,
2013-12-13 21:48:00,42.3,27.7,30.32,WSW,241,0.0,0.0,56,0.00,CLR,,0.00,WeatherDisplay:10.37,2013-12-14 02:48:00,
2013-12-13 21:53:00,42.3,28.1,30.32,WSW,242,0.0,0.0,57,0.00,CLR,,0.00,WeatherDisplay:10.37,2013-12-14 02:53:00,
2013-12-13 21:58:00,42.3,28.6,30.31,WSW,241,0.0,0.0,58,0.00,CLR,,0.00,WeatherDisplay:10.37,2013-12-14 02:58:00,
2013-12-13 22:03:00,42.3,30.2,30.31,WSW,241,0.0,0.0,62,0.00,CLR,,0.00,WeatherDisplay:10.37,2013-12-14 03:03:00,
2013-12-13 22:08:00,42.1,29.6,30.30,WSW,242,0.0,0.0,61,0.00,CLR,,0.00,WeatherDisplay:10.37,2013-12-14 03:08:00,
2013-12-13 22:13:00,41.8,29.7,30.30,WSW,242,0.0,0.0,62,0.00,CLR,,0.00,WeatherDisplay:10.37,2013-12-14 03:13:00,
2013-12-13 22:18:00,41.6,30.3,30.31,WSW,242,0.0,0.0,64,0.00,CLR,,0.00,WeatherDisplay:10.37,2013-12-14 03:18:00,
2013-12-13 22:23:00,41.3,30.4,30.31,WSW,241,0.0,0.0,65,0.00,CLR,,0.00,WeatherDisplay:10.37,2013-12-14 03:23:00,
2013-12-13 22:28:00,41.0,31.6,30.31,WSW,242,0.0,0.0,69,0.00,CLR,,0.00,WeatherDisplay:10.37,2013-12-14 03:28:00,
2013-12-13 22:33:00,40.7,30.2,30.31,WSW,242,0.0,0.0,66,0.00,CLR,,0.00,WeatherDisplay:10.37,2013-12-14 03:33:00,
2013-12-13 22:38:00,40.4,30.3,30.31,WSW,242,0.0,0.0,67,0.00,CLR,,0.00,WeatherDisplay:10.37,2013-12-14 03:38:00,
2013-12-13 22:43:00,40.0,28.8,30.31,WSW,242,0.0,0.0,64,0.00,CLR,,0.00,WeatherDisplay:10.37,2013-12-14 03:43:00,
2013-12-13 22:48:00,39.6,28.4,30.31,WSW,242,0.0,0.0,64,0.00,CLR,,0.00,WeatherDisplay:10.37,2013-12-14 03:48:00,
2013-12-13 22:53:00,39.2,28.0,30.31,WSW,242,0.0,0.0,64,0.00,CLR,,0.00,WeatherDisplay:10.37,2013-12-14 03:53:00,
2013-12-13 22:58:00,39.0,27.8,30.32,WSW,241,0.0,0.0,64,0.00,CLR,,0.00,WeatherDisplay:10.37,2013-12-14 03:58:00,
2013-12-13 23:03:00,38.8,27.7,30.31,WSW,241,0.0,0.0,64,0.00,CLR,,0.00,WeatherDisplay:10.37,2013-12-14 04:03:00,
2013-12-13 23:08:00,38.7,27.6,30.31,WSW,242,0.0,0.0,64,0.00,CLR,,0.00,WeatherDisplay:10.37,2013-12-14 04:08:00,
2013-12-13 23:13:00,38.6,27.1,30.31,WSW,241,0.0,0.0,63,0.00,CLR,,0.00,WeatherDisplay:10.37,2013-12-14 04:13:00,
2013-12-13 23:18:00,38.6,27.8,30.31,WSW,242,0.0,0.0,65,0.00,CLR,,0.00,WeatherDisplay:10.37,2013-12-14 04:18:00,
2013-12-13 23:23:00,38.6,29.3,30.30,WSW,241,0.0,0.0,69,0.00,CLR,,0.00,WeatherDisplay:10.37,2013-12-14 04:23:00,
2013-12-13 23:28:00,38.5,28.9,30.30,WSW,242,0.0,0.0,68,0.00,CLR,,0.00,WeatherDisplay:10.37,2013-12-14 04:28:00,
2013-12-13 23:33:00,38.5,29.6,30.29,WSW,241,0.0,0.0,70,0.00,CLR,,0.00,WeatherDisplay:10.37,2013-12-14 04:33:00,
2013-12-13 23:38:00,38.4,28.8,30.29,WSW,242,0.0,0.0,68,0.00,CLR,,0.00,WeatherDisplay:10.37,2013-12-14 04:38:00,
2013-12-13 23:43:00,38.4,28.8,30.29,WSW,242,0.0,0.0,68,0.00,CLR,,0.00,WeatherDisplay:10.37,2013-12-14 04:43:00,
2013-12-13 23:48:00,38.4,29.5,30.29,WSW,241,0.0,0.0,70,0.00,CLR,,0.00,WeatherDisplay:10.37,2013-12-14 04:48:00,
2013-12-13 23:53:00,38.4,30.5,30.29,WSW,241,0.0,0.0,73,0.00,CLR,,0.00,WeatherDisplay:10.37,2013-12-14 04:53:00,
2013-12-13 23:58:00,38.3,30.7,30.28,WSW,242,0.0,0.0,74,0.00,CLR,,0.00,WeatherDisplay:10.37,2013-12-14 04:58:00,